Weather Roundup
Issued by NWS Corpus Christi, TX

Home | Current Version | Previous Version | Text Only | Print | Product List | Glossary On
Versions: 1 2 3 4 5 6 7 8 9 10 11 12 13 14 15 16 17 18 19 20 21 22 23 24 25 26 27 28 29 30 31 32 33 34 35 36 37 38 39 40 41 42 43 44 45 46 47 48 49 50
000
ASUS44 KCRP 292110
HRRCRP

SOUTH TEXAS REGIONAL WEATHER ROUNDUP
NATIONAL WEATHER SERVICE CORPUS CHRISTI TX
400 PM CDT SUN MAR 29 2015


TXZ229>244-292200-
...CORPUS CHRISTI AREA OBSERVATIONS...

CITY           SKY/WX    TMP DP  RH WIND       PRES   REMARKS
CORPUS CHRISTI SUNNY     78  65  63 SE31G39   30.08F
NAS CORPUS CHR SUNNY     77  65  66 S26G35    30.09F
ROCKPORT       SUNNY     77  63  61 S16G25    30.10F
KINGSVILLE NAS MOSUNNY   84  67  56 SE17G26   30.05F
ALICE            N/A     88  59  37 S21G26    30.04F
FALFURRIAS     SUNNY     84  57  39 S16       30.05F
$$

...VICTORIA AREA OBSERVATIONS...

CITY           SKY/WX    TMP DP  RH WIND       PRES   REMARKS
VICTORIA       SUNNY     80  61  52 S21G31    30.10F
BEEVILLE       FAIR      82  64  54 SE15G25   30.06F
PLEASANTON     SUNNY     83  57  40 SE15G21   30.04F
SAN ANTONIO    SUNNY     82  58  43 SE15G25   30.04F
$$

...LAREDO AREA OBSERVATIONS...

CITY           SKY/WX    TMP DP  RH WIND       PRES   REMARKS
LAREDO         SUNNY     88  58  36 SE15      30.01F
COTULLA        SUNNY     88  57  34 SE18G25   30.00F
DEL RIO        SUNNY     86  54  33 S13G21    29.98F
MCALLEN        SUNNY     86  63  45 SE22G30   30.05F
HEBBRONVILLE   NOT AVBL
$$

...OTHER TEXAS OBSERVATIONS...

CITY           SKY/WX    TMP DP  RH WIND       PRES   REMARKS
BROWNSVILLE    MOSUNNY   79  64  60 SE21G33   30.10F
HOUSTON        MOSUNNY   80  60  50 S15G28    30.10F
COL. STATION   SUNNY     83  53  35 S18G30    30.05F
AUSTIN         SUNNY     82  57  42 S20G30    30.02F
WACO           SUNNY     82  56  40 S20G26    29.99F
FORT WORTH     MOSUNNY   82  59  45 S21       29.94F
WICHITA FALLS  SUNNY     84  52  33 N18       29.96R
LUBBOCK        PTSUNNY   82  28  14 NE25G32   30.09S
EL PASO        PTSUNNY   85   7   5 SW8       30.12F
$$

...MARINE OBSERVATIONS...

STATION/POSITION TIME  SKY/WX   TEMP    WIND        PRES    VSBY  WAVE   SWELL
                                AIR SEA DIR/SP/G                  HT/PER HT/PER
                 (UTC)          (F)     (DEG/KT/KT) (MB)    (MI)  (FT/S) (FT/S)
PORT ARANSAS     2100            69 68  150/ 16/ 17 1020.2F
BUOY 90 E PORT A 2100            72 70  180/ 14/ 16 1021.0F         5/ 7   2/ 7
BUOY 45 SE BAFFI 2100            71 71  160/ 16/ 19 1019.1F         4/ 6
BUOY 200 E PT IS 2100            74 73  140/ 14/ 17 1021.7F         3/ 5
BUOY 15 E GALVES 2100            69 68  180/ 10/ 12 1020.8F         3/ 7   3/ 7
$$


USA.gov is the U.S. government's official web portal to all federal, state and local government web resources and services.